GFSNW_700_spd_132.txt.gz
Wind_Speed
41 48 55 55 58 71 63 56 58 47 46 42 48 46 31 36 28 31 20 22 20 22 24 23 21 14 9 11 7 5 6 3 5 12 7 5 7 13 17 5 4 14 12 14
47 53 54 63 62 62 52 57 49 49 50 50 47 34 33 33 28 26 26 23 25 19 21 18 18 15 14 12 8 2 6 0 5 1 6 5 13 16 17 17 10 11 9 16
72 69 64 70 63 57 54 57 38 51 51 46 43 34 37 32 29 31 26 22 20 20 20 20 15 18 16 12 9 8 9 5 7 9 8 11 18 18 15 12 11 14 15 41
41 49 52 52 50 55 59 57 36 54 56 45 39 37 35 30 29 26 21 18 20 21 20 17 16 19 16 10 10 11 8 7 8 10 11 14 15 13 11 14 13 11 29 31
29 31 35 44 51 59 55 44 40 47 36 34 38 36 30 34 28 30 22 15 15 15 14 19 17 18 15 13 9 7 8 5 6 15 9 7 13 11 9 10 8 15 19 22
20 29 37 50 51 50 44 30 38 38 43 39 38 33 32 29 35 21 16 16 13 12 15 14 13 11 11 10 10 8 5 3 6 5 7 10 5 3 11 15 11 10 17 22
22 37 44 44 42 42 27 28 29 33 38 35 36 31 27 31 26 21 18 15 14 16 14 12 11 9 10 11 9 8 4 4 5 5 6 1 2 6 11 17 10 8 13 15
34 33 36 37 35 30 22 25 29 32 34 31 30 29 29 28 21 17 15 19 16 12 10 7 4 7 9 9 9 8 6 5 3 2 3 9 10 6 16 19 13 13 15 14
30 31 30 31 33 27 26 26 26 27 25 32 28 28 25 23 20 17 17 18 15 12 10 11 7 7 9 9 9 9 5 8 6 2 2 4 3 8 18 13 11 8 15 16
27 27 27 29 30 27 19 21 21 26 23 28 29 28 24 21 23 24 22 17 15 12 13 11 9 6 13 9 11 10 8 8 10 10 6 6 7 8 14 4 8 17 17 16
33 30 30 34 35 33 25 25 23 22 20 27 25 19 20 22 21 20 19 18 18 14 12 9 7 8 11 9 11 10 10 7 7 6 5 6 4 12 9 12 15 16 14 14
27 25 26 25 27 27 26 23 22 23 22 23 22 22 18 16 13 15 17 18 15 15 12 10 8 9 11 10 7 13 7 8 4 6 6 11 17 14 17 17 17 16 15 14
28 29 27 26 26 25 24 21 22 23 22 23 21 20 19 18 15 13 14 17 11 13 10 11 8 6 10 10 13 11 13 11 13 13 12 12 16 16 17 17 17 18 18 16
21 29 28 27 26 24 21 20 23 25 24 19 22 20 20 18 15 13 13 12 13 12 12 11 9 9 7 12 14 15 16 16 19 21 19 17 17 13 12 15 17 19 21 18
22 21 23 24 22 21 18 17 19 23 24 21 23 20 19 17 16 15 14 15 15 14 14 13 12 13 11 12 12 13 13 17 20 23 19 16 17 16 16 16 16 20 21 20
25 24 25 22 21 18 16 17 19 21 18 21 19 16 14 15 15 13 12 12 12 12 12 12 13 12 9 6 9 10 9 10 13 16 16 17 17 16 15 16 21 24 23 20
25 23 23 21 20 17 17 15 20 18 18 21 20 17 16 13 11 9 7 7 8 8 9 10 8 7 9 14 19 15 11 12 13 15 15 11 14 15 16 18 23 25 23 20
25 23 25 23 21 18 15 16 20 19 18 16 10 12 19 16 12 8 6 6 7 7 6 5 4 7 10 10 9 8 8 10 12 13 14 15 14 15 17 22 25 25 23 19
28 25 23 22 19 18 14 17 19 18 13 9 9 16 18 17 11 9 7 7 3 3 5 5 6 11 9 9 11 10 9 8 7 7 9 12 15 19 21 25 26 26 22 18
27 26 23 21 17 16 13 16 17 15 11 5 12 13 11 17 13 11 7 5 3 1 4 4 8 14 11 11 12 13 12 11 11 11 13 15 19 23 25 25 23 21 19 17
30 27 22 21 19 17 10 9 9 8 5 9 12 13 10 14 12 11 6 3 2 2 3 3 4 7 6 8 7 7 7 9 10 11 15 20 21 21 19 16 15 15 14 15
27 23 21 22 18 7 5 7 6 5 5 7 13 15 13 13 11 9 6 4 4 3 3 3 5 8 10 9 6 7 9 10 12 15 18 17 17 16 13 13 13 13 12 13
31 29 25 18 12 8 8 10 9 6 8 11 10 15 19 15 11 7 6 6 4 3 3 4 7 13 12 10 10 9 10 12 13 13 13 11 11 12 13 13 14 14 14 14
30 19 20 9 9 11 8 14 9 11 10 11 13 11 15 15 16 6 4 6 5 4 5 5 7 10 3 2 3 5 5 5 5 6 9 12 14 14 14 15 16 16 16 15
21 20 9 13 15 12 11 15 15 13 11 8 11 10 7 14 7 8 4 7 5 7 6 3 5 5 3 2 2 3 5 7 9 10 12 14 15 18 19 20 20 21 20 20
26 12 20 23 21 15 16 12 15 15 14 15 12 10 7 8 5 9 8 5 5 5 6 5 5 4 5 7 8 9 10 11 12 15 17 19 19 20 21 21 21 21 20 19
12 17 19 21 18 14 12 11 12 15 19 16 10 7 8 7 7 8 11 14 9 8 6 4 4 6 8 9 10 12 13 14 17 18 18 18 18 18 18 18 18 19 20 20

GFSNW_700_spd_135.txt.gz
Wind_Speed
55 54 55 58 63 63 70 66 58 54 57 49 56 58 44 31 35 26 32 29 21 27 29 29 24 19 11 15 11 8 5 4 5 5 11 10 7 2 6 1 2 10 11 8
40 43 53 65 69 69 70 65 55 45 61 59 63 50 40 37 32 37 24 23 25 24 25 21 23 19 16 14 13 6 7 5 2 4 10 10 6 5 7 9 5 13 6 7
27 34 46 56 62 68 66 63 37 57 57 54 61 39 42 31 34 32 30 23 20 21 26 21 23 20 19 17 13 10 7 6 9 8 4 6 9 9 8 8 7 8 17 26
24 39 44 52 50 58 58 65 51 62 66 58 48 45 44 33 37 33 31 25 26 22 23 22 18 17 19 18 15 12 9 7 9 8 7 9 9 10 8 9 11 10 18 23
63 62 67 69 68 70 67 61 61 65 53 60 44 37 36 38 34 34 31 24 24 22 22 24 19 17 20 17 18 14 11 6 7 8 7 9 11 11 10 9 11 16 17 19
36 75 75 74 71 72 70 62 58 61 40 57 48 40 41 41 33 27 26 24 19 20 15 14 10 16 19 15 16 14 11 9 6 3 3 6 10 10 8 9 13 17 15 17
30 34 37 49 57 63 60 55 51 56 46 49 48 33 34 33 32 30 24 22 21 19 15 12 15 14 16 16 15 13 10 11 7 4 2 3 3 8 8 12 16 15 14 17
22 37 45 41 46 49 34 33 32 40 50 40 31 32 33 33 26 22 26 21 15 16 13 15 11 10 10 11 12 12 13 11 5 3 3 5 9 10 7 11 16 16 14 13
38 40 27 38 26 29 28 24 29 33 47 37 35 34 33 30 29 32 28 22 17 15 19 15 8 9 10 11 14 15 13 12 7 5 3 4 3 8 11 16 13 10 12 22
38 30 28 32 33 28 22 28 24 32 38 36 33 34 30 34 30 30 22 21 19 18 16 16 11 7 15 12 13 17 14 14 12 9 5 4 6 9 11 4 7 17 18 18
30 37 24 28 20 30 25 24 22 35 35 32 32 31 31 31 24 26 24 21 20 17 15 14 9 8 14 11 14 12 16 11 9 10 7 5 9 7 6 12 16 16 17 16
27 29 29 28 26 22 23 25 26 19 36 37 32 29 26 23 18 18 20 21 14 18 16 13 11 9 15 14 12 16 14 11 9 9 6 8 8 10 11 15 15 16 17 17
27 27 21 25 23 22 23 26 25 30 33 34 30 27 21 19 17 15 16 20 17 19 17 15 11 8 14 13 15 15 17 12 13 12 13 13 11 13 14 13 13 15 17 18
24 24 26 26 24 23 19 21 20 22 32 28 26 23 21 19 15 12 12 12 13 16 15 14 10 11 11 14 10 15 15 14 15 17 17 16 17 15 12 13 14 14 17 20
24 25 24 23 23 21 23 22 22 18 21 30 28 22 16 16 15 12 12 14 15 14 14 12 11 11 8 10 13 14 14 15 16 17 16 17 17 15 14 13 13 15 19 23
26 29 26 25 23 23 24 24 24 27 12 30 23 18 18 16 15 14 13 13 14 14 14 13 12 10 10 5 6 3 5 7 10 11 12 13 13 13 13 14 13 15 20 23
21 23 23 23 22 21 22 21 25 29 19 24 22 18 17 15 12 11 11 11 11 12 12 12 9 10 11 10 9 5 7 9 11 13 13 12 11 11 14 14 15 17 21 24
27 27 25 23 22 18 18 22 23 23 19 22 12 14 19 16 14 11 10 9 9 10 10 11 10 9 7 4 4 1 4 8 11 13 12 13 12 12 13 14 18 22 24 23
28 27 24 22 21 18 21 21 23 22 13 8 12 23 20 17 13 10 9 9 9 9 10 8 7 8 6 4 3 5 7 7 8 7 7 7 9 12 15 18 21 22 21 20
26 24 23 21 19 18 20 19 17 14 8 6 16 18 17 20 15 11 9 8 7 5 7 6 7 8 5 5 6 8 9 9 9 9 10 11 13 15 18 18 17 17 16 15
26 25 22 22 19 19 13 10 7 7 6 10 16 12 19 19 14 14 6 6 5 4 4 4 3 2 4 5 7 9 7 5 6 7 9 11 14 15 15 15 13 12 13 13
26 23 24 23 18 8 6 9 8 6 6 14 16 15 17 19 15 7 5 4 5 3 5 3 3 2 4 6 6 4 6 6 7 9 11 12 13 12 12 12 13 13 14 14
26 20 21 16 5 5 7 7 8 8 14 16 17 18 17 16 9 6 5 4 4 4 4 3 4 3 7 5 4 5 6 6 8 8 8 8 8 10 12 13 13 14 15 16
19 14 13 7 5 5 7 12 12 14 17 16 16 17 14 13 9 6 4 5 5 5 5 4 3 3 4 4 3 1 0 1 2 4 7 9 11 12 13 15 16 17 17 17
22 11 8 10 12 12 10 12 12 13 13 11 12 13 8 14 6 6 6 7 5 7 5 4 2 2 4 4 3 1 3 5 7 8 10 12 15 16 17 18 18 18 18 17
18 8 14 18 16 12 11 15 16 13 12 14 13 10 7 8 5 8 6 6 5 5 6 4 2 2 2 1 2 5 7 9 10 12 15 17 17 16 16 15 15 15 15 15
14 15 15 19 17 11 13 15 15 13 13 14 7 7 7 6 6 7 11 12 5 3 4 3 3 3 3 5 6 9 10 12 14 15 15 14 14 14 14 14 14 14 14 15

GFSNW_700_spd_138.txt.gz
Wind_Speed
59 66 67 59 50 49 45 51 53 57 57 52 54 46 43 36 33 34 36 30 29 28 32 24 20 22 19 23 20 21 18 11 10 10 11 14 11 9 7 5 6 10 12 19
62 69 67 58 55 58 59 60 55 49 62 53 55 47 47 42 39 36 34 30 33 28 31 19 20 22 22 23 21 16 16 9 9 5 5 17 14 14 9 7 7 13 12 10
60 56 49 58 65 64 65 69 50 48 52 55 58 48 43 41 38 40 35 30 30 31 26 20 27 28 26 25 21 16 13 12 10 9 5 12 16 17 15 12 10 14 19 24
42 46 58 60 61 63 71 74 55 68 64 61 60 52 45 50 42 40 36 28 36 34 25 24 25 31 28 26 21 17 14 8 13 11 8 12 12 13 15 18 16 12 17 21
14 24 34 40 44 66 78 71 65 66 54 58 55 46 44 46 47 50 44 32 32 31 30 32 28 29 27 27 24 19 15 7 11 10 12 13 17 17 17 17 17 19 19 19
32 38 37 52 56 63 74 60 58 65 52 60 56 60 48 45 53 37 36 37 34 32 26 25 18 21 21 14 15 18 18 13 10 5 8 8 12 24 23 17 14 15 19 19
49 70 76 83 89 90 80 66 61 54 50 52 54 46 48 47 35 37 35 31 41 29 22 22 21 16 13 13 16 16 14 13 9 7 8 7 6 7 14 13 13 13 17 18
47 42 61 83 86 83 70 62 56 53 49 46 44 43 48 46 30 31 35 33 30 32 27 24 17 13 15 15 17 16 16 14 7 7 16 2 8 14 11 7 7 14 11 14
42 30 20 32 55 67 66 69 56 49 52 48 48 52 53 53 44 35 36 28 27 29 26 20 13 10 16 11 12 21 21 18 10 9 5 5 4 8 9 6 6 5 13 17
27 32 33 22 17 18 21 25 33 43 46 45 42 40 46 42 41 39 39 35 31 30 26 17 15 10 14 14 17 22 18 13 15 12 9 7 11 9 8 4 3 11 15 17
25 26 24 20 19 20 15 18 22 29 43 50 42 43 44 43 39 44 43 36 28 25 19 17 9 8 12 11 14 19 16 15 14 14 13 10 12 9 6 8 12 13 15 17
27 29 35 36 30 28 25 39 32 41 51 46 38 37 34 32 31 36 40 25 29 23 18 13 13 10 16 14 13 17 13 12 11 12 10 10 10 8 8 10 12 12 13 16
30 29 36 31 30 26 30 35 38 42 47 40 34 33 34 30 27 23 24 23 22 24 24 19 17 11 16 13 9 18 17 20 11 12 12 12 14 14 13 13 11 11 12 14
27 28 28 27 27 26 26 28 35 34 47 47 38 30 27 24 22 18 15 14 18 17 19 17 15 13 16 14 10 12 15 17 16 14 13 14 16 18 16 14 13 11 12 14
26 29 30 28 28 26 27 36 34 36 30 46 37 30 28 23 18 17 16 16 15 17 19 16 15 14 14 13 12 9 14 14 14 11 15 15 15 15 14 13 13 13 13 16
27 23 23 26 29 28 27 31 29 30 23 39 33 27 23 20 17 15 15 16 16 16 18 15 13 12 9 7 6 9 11 12 12 12 12 11 12 11 12 11 12 14 16 18
26 26 27 27 28 29 28 27 25 21 25 34 25 16 19 17 14 12 13 13 13 14 14 13 11 11 9 7 6 8 8 9 9 10 11 11 10 10 10 13 14 15 18 21
25 23 23 21 22 23 21 22 25 24 22 23 13 18 16 14 15 15 13 14 14 14 12 11 11 10 9 4 8 8 7 8 9 10 10 10 10 13 14 13 15 18 21 23
28 25 25 22 21 25 28 27 26 18 16 10 15 18 15 17 16 16 16 14 13 13 12 13 12 10 5 11 10 8 7 7 6 6 7 8 9 9 12 14 18 19 18 18
28 29 26 27 27 27 27 25 23 13 10 11 23 22 21 21 20 16 11 11 8 7 10 10 7 8 10 10 9 9 7 6 8 10 10 9 11 12 13 15 15 15 14 13
25 24 26 27 28 26 18 10 7 7 7 15 20 13 25 21 14 16 8 7 6 4 7 7 6 7 11 11 8 7 8 7 8 8 8 8 10 12 12 12 11 12 13 14
22 22 26 28 16 8 7 9 8 7 7 20 18 20 22 21 18 8 8 5 6 3 10 6 3 9 9 7 6 5 8 9 7 7 7 9 10 9 8 9 10 11 12 13
20 23 20 8 5 5 5 5 7 8 19 21 21 23 22 17 8 7 5 4 4 9 6 4 7 7 5 8 8 8 8 8 6 4 3 3 5 7 9 11 12 14 15 16
22 11 7 4 4 5 11 13 13 18 21 21 20 21 13 13 8 6 4 6 7 5 4 4 8 3 5 8 8 7 5 4 2 1 4 5 7 10 13 15 16 16 15 14
15 9 5 5 14 20 20 18 20 22 20 18 18 13 11 13 5 5 5 7 4 6 5 9 8 8 8 9 8 6 4 1 2 5 7 9 12 13 13 13 13 13 13 13
10 6 9 14 18 20 20 19 18 17 18 17 14 9 6 6 5 6 5 6 4 5 12 11 6 8 8 6 4 2 1 3 5 7 9 10 10 10 10 10 11 11 11 12
12 16 19 15 15 12 11 16 16 14 13 13 6 6 5 6 5 6 8 6 9 10 11 6 6 7 6 3 1 3 4 5 8 8 8 8 8 8 9 10 11 11 12 12

GFSNW_700_spd_144.txt.gz
Wind_Speed
46 46 46 47 47 38 33 35 34 34 37 36 43 43 45 37 28 39 35 34 33 27 26 30 38 33 19 17 30 32 26 12 17 26 10 20 17 17 19 8 8 13 6 6
47 46 45 44 47 43 39 38 39 42 43 39 42 44 41 41 29 31 38 28 30 35 29 27 35 33 30 18 19 27 26 15 14 17 17 21 19 22 21 19 10 12 12 5
42 43 45 42 44 45 45 43 45 42 52 49 43 43 39 41 40 38 33 32 33 31 32 27 26 31 27 27 23 26 26 25 22 19 9 14 28 26 25 23 17 12 17 13
40 41 42 42 42 45 46 52 44 43 51 48 43 42 37 40 42 36 36 35 37 35 35 31 37 33 28 28 31 32 26 27 22 21 13 9 10 20 28 29 30 13 12 13
39 41 41 42 43 45 49 58 57 50 32 37 47 42 45 40 39 36 39 41 36 35 40 39 40 35 41 39 24 23 25 16 20 21 15 13 13 17 21 26 25 24 21 18
37 39 42 44 46 51 56 60 60 46 51 38 42 52 47 47 39 40 38 39 35 36 42 28 25 32 31 31 35 32 31 22 13 12 13 15 25 25 24 25 28 23 24 21
32 37 42 48 54 58 61 63 60 63 50 51 54 48 50 45 45 43 38 34 38 29 28 26 21 28 31 26 28 32 32 30 16 13 13 15 22 13 19 26 26 25 18 17
32 38 43 51 57 62 67 67 67 66 70 47 44 52 48 43 41 42 40 36 37 26 32 29 22 18 16 26 22 31 24 22 18 18 19 11 8 14 11 14 20 17 13 21
30 30 31 42 52 63 67 70 70 70 65 76 48 43 44 41 45 43 42 33 39 40 36 32 17 14 18 16 19 25 23 24 21 12 16 8 14 16 15 14 12 13 22 19
21 21 26 34 55 69 84 80 69 72 71 58 49 51 51 44 43 43 44 35 34 39 38 27 16 11 24 16 25 34 26 23 24 24 16 11 11 14 5 7 8 20 16 13
14 3 8 12 18 35 58 83 81 78 74 46 43 42 44 42 48 51 42 41 38 35 34 25 12 13 27 13 23 29 24 20 24 22 16 16 14 13 7 10 13 13 13 12
12 3 8 20 23 38 52 59 59 66 62 50 51 42 39 45 49 51 50 49 53 38 39 19 15 15 22 18 18 19 22 27 17 19 20 8 14 13 14 10 11 13 13 17
14 20 22 30 31 50 53 57 57 65 56 39 43 47 45 48 47 46 55 41 44 40 37 24 17 13 21 20 15 26 12 24 17 16 10 14 13 12 10 9 12 13 16 21
20 23 29 31 35 39 44 48 59 65 46 37 40 42 51 52 48 43 42 42 37 36 29 23 22 15 15 16 12 22 19 23 16 12 15 14 10 11 11 12 14 14 16 18
27 35 29 32 31 45 48 35 43 44 47 42 31 33 32 33 34 25 31 39 30 28 27 20 16 14 17 13 17 15 19 24 20 15 16 13 12 13 13 12 12 10 11 14
24 27 38 37 31 36 41 40 35 32 41 48 41 31 27 26 26 32 22 27 25 15 20 19 19 21 16 14 8 12 19 21 23 20 19 17 15 14 15 12 7 7 10 13
28 25 27 32 42 45 39 43 51 50 53 55 48 35 30 25 27 28 27 24 22 18 18 14 14 15 17 14 9 15 15 17 21 17 16 17 17 13 10 8 7 9 13 14
20 21 20 21 27 29 43 44 46 50 42 38 24 33 33 28 31 32 26 23 20 15 17 15 21 20 14 6 11 15 16 15 14 16 12 12 10 8 8 9 10 11 14 17
22 22 25 34 35 34 37 38 36 32 21 14 23 29 29 22 25 24 22 19 18 14 16 14 13 12 3 16 17 15 13 13 11 8 9 8 7 6 6 6 8 12 15 16
25 25 23 32 33 29 32 29 23 17 23 30 28 26 28 29 30 26 20 19 11 12 10 17 13 18 14 15 15 15 14 9 7 6 5 5 4 2 5 7 10 13 14 13
26 21 28 30 28 24 15 9 10 8 13 16 19 16 30 23 25 25 11 10 8 5 13 10 9 16 23 22 20 15 10 8 7 7 6 3 3 4 6 9 10 9 10 12
23 23 23 25 15 9 7 9 8 8 9 23 24 23 26 23 22 12 12 9 7 5 15 10 9 14 25 21 15 12 8 9 8 5 3 3 4 5 5 6 8 10 13 15
33 25 16 6 4 8 5 5 7 11 28 30 27 26 26 23 11 10 7 5 5 20 7 9 9 18 18 16 14 11 8 8 7 5 4 3 3 4 5 8 11 12 12 12
14 6 6 4 5 8 10 12 20 30 32 27 26 27 17 15 9 7 5 10 8 5 6 5 15 18 18 16 13 11 8 8 8 7 5 4 4 5 7 8 9 10 10 11
6 6 7 13 21 20 22 24 28 27 27 25 22 20 15 11 6 5 7 5 4 4 6 11 16 17 14 13 12 12 13 12 8 6 5 4 5 5 6 6 7 8 9 11
9 15 22 25 29 30 30 27 30 28 21 19 18 12 6 6 6 4 4 6 4 8 10 16 17 13 14 16 17 16 13 8 6 5 5 4 3 4 5 5 7 8 10 11
13 18 24 24 29 29 29 23 23 21 17 14 10 6 4 7 5 5 5 6 6 10 16 17 16 16 18 17 16 12 8 6 4 4 4 3 3 4 4 6 7 9 10 11

GFSNW_700_spd_150.txt.gz
Wind_Speed
30 31 33 31 30 26 28 31 34 39 29 34 39 41 43 40 42 43 40 38 37 32 30 30 26 33 38 23 27 37 42 32 39 24 19 21 28 33 33 14 6 15 11 8
35 33 31 30 30 33 34 36 37 33 35 40 44 41 45 36 42 43 44 47 43 41 40 34 33 24 25 25 22 24 35 23 23 19 24 18 30 33 33 27 18 19 7 9
41 39 38 36 33 33 35 37 40 43 37 47 44 46 38 49 46 43 34 30 37 43 40 39 36 31 29 14 30 26 27 29 35 31 13 17 31 29 25 28 29 28 31 23
39 39 38 38 36 36 39 42 41 44 40 44 51 48 46 47 46 43 42 37 34 30 36 42 31 35 26 25 23 19 25 29 34 32 25 19 13 15 22 29 39 30 32 28
37 37 37 37 37 37 40 47 45 47 51 39 41 48 49 48 43 45 49 48 45 43 42 40 37 34 36 36 28 37 22 20 30 39 31 25 29 42 32 24 28 34 28 28
38 37 38 39 39 41 46 49 51 39 39 51 35 53 55 56 47 49 50 40 39 39 42 37 34 30 32 27 27 25 30 32 29 27 34 25 21 54 49 32 25 25 30 33
39 38 37 38 42 44 47 49 48 49 48 48 64 52 58 49 50 47 37 38 36 39 36 34 35 35 31 34 32 31 32 37 27 14 12 7 34 30 29 38 26 22 23 25
35 41 40 41 41 41 44 45 48 49 49 54 52 55 37 46 45 46 44 42 35 21 30 24 30 27 31 32 37 31 30 24 17 12 17 17 13 13 15 19 26 29 31 28
33 38 44 45 44 44 46 48 48 49 50 59 53 51 50 43 38 39 48 42 31 21 30 28 22 13 20 13 16 31 26 27 31 13 6 8 13 21 9 17 25 24 25 26
30 34 40 48 50 48 50 52 53 50 55 49 49 53 51 49 54 26 36 30 28 31 33 30 23 22 15 12 17 22 23 23 30 21 10 11 18 8 11 21 13 16 15 17
24 27 29 35 43 50 56 55 55 60 60 49 44 46 46 33 33 39 28 26 31 31 29 24 18 16 19 17 18 26 32 23 20 21 11 16 8 10 19 23 19 9 17 15
27 29 29 32 38 40 45 52 56 53 54 44 38 39 39 46 35 25 27 30 29 30 26 26 17 13 20 24 17 20 25 30 23 19 15 11 13 17 19 19 12 11 13 14
19 21 22 25 32 37 46 50 39 47 53 53 47 42 37 35 44 42 30 30 28 27 28 32 19 12 23 22 25 22 23 22 18 20 15 16 19 16 17 14 12 10 11 11
19 19 20 23 28 35 41 51 54 45 53 54 43 39 35 25 38 43 46 36 27 29 28 31 31 23 19 21 19 27 25 26 27 23 17 19 22 23 22 13 7 6 6 8
12 10 15 17 20 29 40 53 51 56 50 44 42 42 37 33 25 37 43 41 37 41 32 33 31 28 22 25 23 21 26 30 35 32 28 23 23 19 11 3 4 4 5 4
6 7 10 6 13 28 47 56 55 51 58 22 29 42 37 37 39 31 27 41 43 41 38 31 32 27 21 20 22 24 23 25 20 19 29 19 9 7 6 6 5 3 3 2
16 13 6 10 22 27 54 62 54 49 47 36 19 20 26 24 28 36 39 32 51 46 40 37 38 32 24 16 13 20 23 18 16 13 27 16 12 6 9 8 5 3 2 3
18 25 16 23 22 19 29 34 54 54 42 29 16 12 34 31 33 33 33 35 38 35 30 27 28 27 17 7 16 19 25 24 21 15 17 9 9 12 11 9 4 2 3 6
20 26 31 21 20 32 34 50 41 53 17 15 18 21 30 29 33 34 36 30 27 20 24 29 21 14 5 15 20 18 20 21 23 21 19 15 13 12 10 6 2 3 5 6
32 36 39 47 46 43 42 42 43 38 30 9 25 33 30 36 38 41 29 21 13 19 21 21 12 9 6 11 12 14 17 19 19 23 23 18 15 11 9 5 4 4 3 4
33 41 39 40 41 44 25 14 10 11 8 16 28 28 40 36 37 30 11 9 8 9 13 9 9 18 17 14 15 17 21 21 20 18 15 13 10 10 8 7 4 2 4 7
30 26 26 19 11 8 7 9 8 10 7 36 41 45 43 38 26 13 11 9 7 5 17 10 13 24 20 17 19 22 22 19 19 17 15 15 13 11 8 6 4 4 5 6
20 16 11 7 6 5 4 7 9 14 37 42 43 38 33 21 11 12 7 5 5 21 9 11 16 27 23 19 18 20 19 18 17 18 17 14 11 9 7 5 3 2 3 5
12 9 8 5 4 5 8 15 16 31 38 37 31 27 17 15 12 8 4 11 16 8 11 12 20 27 24 20 18 16 17 18 18 15 13 12 10 8 6 3 1 2 3 4
6 7 7 10 13 17 18 14 21 32 31 30 27 22 20 18 9 5 7 8 6 8 8 18 20 23 24 21 21 18 16 18 16 14 13 12 9 8 5 3 1 2 3 3
10 14 23 19 24 26 26 29 33 31 29 27 25 21 13 7 6 4 3 7 6 9 15 19 21 24 26 24 21 19 18 17 16 15 12 10 9 7 5 3 3 3 2 2
21 25 31 35 35 32 30 29 27 26 24 24 21 8 3 8 5 5 8 5 8 15 16 20 21 24 25 24 23 21 18 19 17 14 11 10 9 7 5 4 4 3 2 2